FW0675 Weather Reports


time (UTC)temp
F
wind
direction
speed
knots
gust
knots
rain 1hr
in
rain 24hr
in
rain mn
in
humidity
%
barometer
mb
20260505092940 50 313 0.0 0.0 0.00 0.00 0.00 89 1014.6
20260505092440 50 313 0.0 0.0 0.00 0.00 0.00 89 1014.6
20260505091442 51 313 0.0 0.0 0.00 0.00 0.00 89 1014.5
20260505090941 51 313 0.0 0.0 0.00 0.00 0.00 89 1014.5
20260505090442 51 313 0.0 0.0 0.00 0.00 0.00 88 1014.4
20260505085940 51 313 0.0 0.0 0.00 0.00 0.00 88 1014.4
20260505085440 51 313 0.0 0.0 0.00 0.00 0.00 88 1014.4
20260505084439 52 313 0.0 0.0 0.00 0.00 0.00 87 1014.1
20260505083939 52 313 0.0 0.0 0.00 0.00 0.00 87 1014.1
20260505083438 52 312 0.0 0.0 0.00 0.00 0.00 87 1014.1
20260505082939 52 313 0.0 0.0 0.00 0.00 0.00 87 1014.0
20260505082437 52 313 0.0 0.0 0.00 0.00 0.00 87 1014.0
20260505081938 52 311 0.0 0.0 0.00 0.00 0.00 87 1013.9
20260505081437 52 311 0.0 0.0 0.00 0.00 0.00 87 1014.0
20260505080939 52 310 0.0 0.0 0.00 0.00 0.00 87 1013.9
20260505080438 52 307 0.0 0.0 0.00 0.00 0.00 87 1013.9
20260505075939 52 305 0.0 0.0 0.00 0.00 0.00 87 1013.8
20260505075437 52 310 0.0 0.0 0.00 0.00 0.00 87 1013.9
20260505074435 53 309 0.0 0.0 0.00 0.00 0.00 87 1013.7
20260505073437 53 311 0.0 0.0 0.00 0.00 0.00 86 1013.6
20260505072936 53 302 0.0 0.0 0.00 0.00 0.00 86 1013.7
20260505072436 53 308 0.0 0.0 0.00 0.00 0.00 86 1013.5
20260505071936 53 303 0.0 0.0 0.00 0.00 0.00 86 1013.5
20260505071436 53 313 0.0 0.0 0.00 0.00 0.00 86 1013.3
20260505070935 53 306 0.0 0.0 0.00 0.00 0.00 85 1013.3
20260505070434 53 294 0.0 0.0 0.00 0.00 0.00 85 1013.3
20260505065934 53 309 0.0 0.0 0.00 0.00 0.00 85 1013.3
20260505065431 54 310 0.0 0.0 0.00 0.00 0.00 85 1013.1
20260505064933 54 315 0.0 0.0 0.00 0.00 0.00 85 1013.2
20260505063431 55 302 0.0 0.0 0.00 0.00 0.00 84 1013.1
20260505062932 55 300 0.0 0.0 0.00 0.00 0.00 84 1013.1
20260505061933 55 292 0.0 0.0 0.00 0.00 0.00 83 1013.0
20260505061432 55 115 0.0 0.0 0.00 0.00 0.00 83 1012.9
20260505060930 55 115 0.0 0.0 0.00 0.00 0.00 83 1013.0
20260505060431 56 115 0.0 0.0 0.00 0.00 0.00 83 1013.0
20260505055930 56 115 0.0 0.0 0.00 0.00 0.00 82 1012.9
20260505055430 56 116 0.0 0.0 0.00 0.00 0.00 82 1012.8
20260505054929 56 118 0.0 0.0 0.00 0.00 0.00 82 1012.8
20260505053929 57 272 0.0 0.0 0.00 0.00 0.00 82 1012.8
20260505052930 57 294 0.0 0.0 0.00 0.00 0.00 81 1012.8
20260505052428 57 280 0.0 0.0 0.00 0.00 0.00 81 1012.7
20260505051927 57 294 0.0 0.0 0.00 0.00 0.00 81 1012.7
20260505051427 58 259 0.0 0.0 0.00 0.00 0.00 81 1012.6
20260505050927 58 119 0.0 0.0 0.00 0.00 0.00 81 1012.7
20260505050429 58 119 0.0 0.0 0.00 0.00 0.00 81 1012.6
20260505041426 61 311 0.0 0.0 0.00 0.00 0.00 78 1011.9
20260505040925 61 321 0.0 0.0 0.00 0.00 0.00 78 1011.9
20260505040426 61 321 0.0 0.0 0.00 0.00 0.00 78 1011.8
20260505035925 61 293 0.0 0.0 0.00 0.00 0.00 78 1011.7
20260505035425 62 15 0.0 0.0 0.00 0.00 0.00 77 1011.7
20260505034925 62 15 0.0 0.0 0.00 0.00 0.00 76 1011.6
20260505034424 62 15 0.0 0.0 0.00 0.00 0.00 76 1011.5
20260505033924 62 102 0.0 0.0 0.00 0.00 0.00 76 1011.4
20260505033424 63 102 0.0 0.0 0.00 0.00 0.00 75 1011.4
20260505032923 63 332 0.0 0.0 0.00 0.00 0.00 75 1011.2
20260505031923 64 332 0.0 0.0 0.00 0.00 0.00 74 1011.2
20260505031423 64 351 0.0 0.0 0.00 0.00 0.00 74 1011.0
20260505030924 65 351 0.0 0.0 0.00 0.00 0.00 73 1011.0
20260505025923 65 300 0.0 0.0 0.00 0.00 0.00 73 1010.9
20260505025422 66 300 0.0 0.0 0.00 0.00 0.00 73 1010.9
20260505024921 66 300 0.0 0.0 0.00 0.00 0.00 72 1010.8
20260505023922 67 300 0.0 0.0 0.00 0.00 0.00 72 1010.8
20260505023420 67 300 0.0 0.0 0.00 0.00 0.00 71 1010.7
20260505022919 67 300 0.0 0.0 0.00 0.00 0.00 71 1010.7
20260505022421 68 300 0.0 0.0 0.00 0.00 0.00 70 1010.6
20260505021419 69 300 0.0 0.0 0.00 0.00 0.00 69 1010.6
20260505020920 69 300 0.0 0.0 0.00 0.00 0.00 69 1010.5
20260505020419 69 300 0.0 0.0 0.00 0.00 0.00 68 1010.5
20260505015919 69 270 0.0 0.0 0.00 0.00 0.00 70 1010.5
20260505015420 69 351 0.0 0.0 0.00 0.00 0.00 72 1010.5
20260505014920 70 351 0.0 0.0 0.00 0.00 0.00 72 1010.5
20260505014419 70 351 0.0 0.0 0.00 0.00 0.00 73 1010.5
20260505013919 70 351 0.0 0.0 0.00 0.00 0.00 75 1010.5
20260505013419 71 218 0.0 0.0 0.00 0.00 0.00 75 1010.4
20260505012420 71 277 0.0 0.0 0.00 0.00 0.00 74 1010.4
20260505011921 71 277 0.0 0.0 0.00 0.00 0.00 73 1010.4
20260505011418 71 148 0.0 0.0 0.00 0.00 0.00 74 1010.4
20260505010418 71 257 0.0 0.0 0.00 0.00 0.00 74 1010.5
20260505005918 71 257 0.0 0.0 0.00 0.00 0.00 74 1010.5
20260505005415 71 257 0.0 0.0 0.00 0.00 0.00 74 1010.6
20260505004916 71 257 0.0 0.0 0.00 0.00 0.00 74 1010.5
20260505004413 71 257 0.0 0.0 0.00 0.00 0.00 73 1010.6
20260505003913 71 246 0.0 0.0 0.00 0.00 0.00 73 1010.5
20260505002915 72 294 0.0 0.0 0.00 0.00 0.00 73 1010.6
20260505001913 72 241 0.0 0.0 0.00 0.00 0.00 72 1010.5
20260505001413 72 255 0.0 0.0 0.00 0.00 0.00 71 1010.5
20260505000913 73 244 0.0 0.0 0.00 0.00 0.00 71 1010.6
20260505000414 73 244 0.0 0.0 0.00 0.00 0.00 70 1010.7
20260504235914 73 236 0.0 0.0 0.00 0.00 0.00 70 1010.7
20260504235412 73 308 0.0 0.0 0.00 0.00 0.00 69 1010.6
20260504234911 73 239 0.0 0.0 0.00 0.00 0.00 69 1010.8
20260504234410 73 235 0.0 0.0 0.00 0.00 0.00 69 1010.8
20260504233910 74 105 0.0 0.0 0.00 0.00 0.00 69 1010.7
20260504233410 74 342 0.0 0.0 0.00 0.00 0.00 68 1010.8
20260504232908 75 219 0.0 0.0 0.00 0.00 0.00 68 1010.7
20260504232410 75 3 0.0 0.0 0.00 0.00 0.00 66 1010.8
20260504231907 75 113 0.0 0.0 0.00 0.00 0.00 66 1010.8
20260504231407 76 210 0.0 0.0 0.00 0.00 0.00 65 1010.8
20260504230908 76 220 0.0 0.0 0.00 0.00 0.00 69 1010.9
20260504230408 76 224 0.0 0.0 0.00 0.00 0.00 66 1010.9
20260504225906 76 238 0.0 0.0 0.00 0.00 0.00 65 1011.0
20260504225408 76 240 0.0 0.0 0.00 0.00 0.00 68 1011.0
20260504224405 76 79 0.0 0.0 0.00 0.00 0.00 68 1011.2
20260504223905 76 218 0.0 0.0 0.00 0.00 0.00 69 1011.3
20260504223406 74 127 0.0 0.0 0.00 0.00 0.00 67 1011.3
20260504222405 74 104 0.0 0.0 0.00 0.00 0.00 66 1011.5
20260504221904 74 172 0.0 0.0 0.00 0.00 0.00 68 1011.4
20260504221405 74 107 0.0 0.0 0.00 0.00 0.00 66 1011.5
20260504220904 74 117 0.0 0.0 0.00 0.00 0.00 69 1011.5
20260504220404 75 106 0.0 0.0 0.00 0.00 0.00 65 1011.5
20260504215406 75 216 0.0 0.0 0.00 0.00 0.00 66 1011.7
20260504214407 74 225 0.0 0.0 0.00 0.00 0.00 68 1011.8
20260504213905 74 214 0.0 0.0 0.00 0.00 0.00 68 1011.9
20260504213406 73 319 0.0 0.0 0.00 0.00 0.00 70 1011.9
20260504212907 73 130 0.0 0.0 0.00 0.00 0.00 68 1012.0
20260504212405 72 247 0.0 0.0 0.00 0.00 0.00 71 1012.0
20260504211905 71 307 0.0 0.0 0.00 0.00 0.00 68 1012.1
20260504211405 71 110 0.0 0.0 0.00 0.00 0.00 68 1012.2
20260504210905 71 230 0.0 0.0 0.00 0.00 0.00 69 1012.2
20260504210405 71 124 0.0 0.0 0.00 0.00 0.00 70 1012.4
20260504205404 70 151 0.0 0.0 0.00 0.00 0.00 71 1012.5
20260504204405 70 118 0.0 0.0 0.00 0.00 0.00 71 1012.6
20260504203906 69 124 0.0 0.0 0.00 0.00 0.00 70 1012.6
20260504203406 69 100 0.0 0.0 0.00 0.00 0.00 73 1012.7
20260504202905 69 214 0.0 0.0 0.00 0.00 0.00 73 1012.7
20260504201406 69 248 0.0 0.0 0.00 0.00 0.00 71 1012.9
20260504200906 69 99 0.0 0.0 0.00 0.00 0.00 73 1012.9
20260504200404 69 115 0.0 0.0 0.00 0.00 0.00 72 1013.0
20260504195904 69 125 0.0 0.0 0.00 0.00 0.00 70 1013.1
20260504195404 69 104 0.0 0.0 0.00 0.00 0.00 73 1013.1
20260504194905 68 28 0.0 0.0 0.00 0.00 0.00 69 1013.1
20260504194404 69 196 0.0 0.0 0.00 0.00 0.00 71 1013.1
20260504193904 69 150 0.0 0.0 0.00 0.00 0.00 69 1013.1
20260504193406 69 274 0.0 0.0 0.00 0.00 0.00 71 1013.2
20260504192906 69 121 0.0 0.0 0.00 0.00 0.00 71 1013.2
20260504192406 68 13 0.0 0.0 0.00 0.00 0.00 69 1013.4
20260504191904 68 141 0.0 0.0 0.00 0.00 0.00 73 1013.4
20260504191404 67 344 0.0 0.0 0.00 0.00 0.00 74 1013.4
20260504190905 67 103 0.0 0.0 0.00 0.00 0.00 73 1013.4
20260504190403 68 147 0.0 0.0 0.00 0.00 0.00 73 1013.4
20260504185903 67 210 0.0 0.0 0.00 0.00 0.00 73 1013.5
20260504185402 67 211 0.0 0.0 0.00 0.00 0.00 73 1013.4
20260504184900 66 208 0.0 0.0 0.00 0.00 0.00 74 1013.4
20260504183902 65 320 0.0 0.0 0.00 0.00 0.00 74 1013.5
20260504183358 65 101 0.0 0.0 0.00 0.00 0.00 76 1013.5
20260504182400 64 131 0.0 0.0 0.00 0.00 0.00 76 1013.4
20260504181859 63 68 0.0 0.0 0.00 0.00 0.00 76 1013.5
20260504181358 63 319 0.0 0.0 0.00 0.00 0.00 77 1013.6
20260504180856 63 122 0.0 0.0 0.00 0.00 0.00 78 1013.6
20260504180357 62 121 0.0 0.0 0.00 0.00 0.00 79 1013.6
20260504175856 62 305 0.0 0.0 0.00 0.00 0.00 79 1013.5
20260504175356 61 131 0.0 0.0 0.00 0.00 0.00 78 1013.7
20260504174856 61 113 0.0 0.0 0.00 0.00 0.00 78 1013.7
20260504174354 61 23 0.0 0.0 0.00 0.00 0.00 78 1013.7
20260504173856 61 131 0.0 0.0 0.00 0.00 0.00 78 1013.8
20260504173354 61 240 0.0 0.0 0.00 0.00 0.00 78 1013.8
20260504172854 62 141 0.0 0.0 0.00 0.00 0.00 78 1013.6
20260504172355 62 338 0.0 0.0 0.00 0.00 0.00 79 1013.6
20260504171855 61 277 0.0 0.0 0.00 0.00 0.00 78 1013.6
20260504170856 60 221 0.0 0.0 0.00 0.00 0.00 81 1013.6
20260504170356 59 225 0.0 0.0 0.00 0.00 0.00 81 1013.6
20260504150848 54 288 0.0 0.0 0.00 0.00 0.00 87 1013.1
20260504150340 53 287 0.0 0.0 0.00 0.00 0.00 87 1013.1
20260504140838 53 270 0.0 0.0 0.00 0.00 0.00 87 1012.6
20260504140338 53 270 0.0 0.0 0.00 0.00 0.00 87 1012.7
20260504110331 61 262 0.0 0.0 0.00 0.00 0.00 73 1009.8
20260504100323 64 294 0.0 0.0 0.00 0.00 0.00 66 1009.0